Time,TemperatureF,DewpointF,PressureIn,WindDirection,WindDirectionDegrees,WindSpeedMPH,WindSpeedGustMPH,Humidity,HourlyPrecipIn,Conditions,Clouds,dailyrainin,SoftwareType,DateUTC
2013-05-27 00:02:00,63.0,59.0,30.20,ESE,110,0.0,1.0,88,0.00,,,0.00,,2013-05-27 04:02:00,
2013-05-27 00:12:00,63.0,59.0,30.20,ESE,110,0.0,1.0,88,0.00,,,0.00,,2013-05-27 04:12:00,
2013-05-27 00:23:00,63.0,59.0,30.20,ESE,110,0.0,0.0,88,0.00,,,0.00,,2013-05-27 04:23:00,
2013-05-27 00:33:00,62.0,59.0,30.21,ENE,60,2.0,2.0,89,0.00,,,0.00,,2013-05-27 04:33:00,
2013-05-27 00:43:00,62.0,59.0,30.21,SW,222,1.0,4.0,89,0.00,,,0.00,,2013-05-27 04:43:00,
2013-05-27 00:52:00,62.0,59.0,30.21,SW,222,1.0,4.0,89,0.00,,,0.00,,2013-05-27 04:52:00,
2013-05-27 01:02:00,62.0,59.0,30.21,ESE,120,0.0,2.0,89,0.00,,,0.00,,2013-05-27 05:02:00,
2013-05-27 01:12:00,62.0,59.0,30.21,ESE,120,0.0,2.0,89,0.00,,,0.00,,2013-05-27 05:12:00,
2013-05-27 01:22:00,62.0,59.0,30.21,ESE,118,0.0,1.0,91,0.00,,,0.00,,2013-05-27 05:22:00,
2013-05-27 01:32:00,61.0,58.0,30.21,ESE,120,0.0,0.0,91,0.00,,,0.00,,2013-05-27 05:32:00,
2013-05-27 01:42:00,61.0,58.0,30.21,ESE,120,0.0,0.0,91,0.00,,,0.00,,2013-05-27 05:42:00,
2013-05-27 01:52:00,61.0,59.0,30.21,ESE,120,0.0,1.0,92,0.00,,,0.00,,2013-05-27 05:52:00,
2013-05-27 02:02:00,61.0,59.0,30.21,ESE,120,0.0,1.0,93,0.00,,,0.00,,2013-05-27 06:02:00,
2013-05-27 02:11:00,61.0,59.0,30.21,ESE,120,0.0,1.0,93,0.00,,,0.00,,2013-05-27 06:11:00,
2013-05-27 02:22:00,60.0,58.0,30.21,ESE,120,0.0,0.0,93,0.00,,,0.00,,2013-05-27 06:22:00,
2013-05-27 02:32:00,60.0,58.0,30.20,ESE,120,0.0,0.0,94,0.00,,,0.00,,2013-05-27 06:32:00,
2013-05-27 02:42:00,60.0,58.0,30.20,ESE,118,0.0,0.0,94,0.00,,,0.00,,2013-05-27 06:42:00,
2013-05-27 02:52:00,60.0,58.0,30.20,ESE,118,0.0,0.0,94,0.00,,,0.00,,2013-05-27 06:52:00,
2013-05-27 03:02:00,60.0,58.0,30.20,ESE,120,0.0,1.0,94,0.00,,,0.00,,2013-05-27 07:02:00,
2013-05-27 03:11:00,60.0,58.0,30.20,ESE,120,0.0,0.0,94,0.00,,,0.00,,2013-05-27 07:11:00,
2013-05-27 03:21:00,60.0,58.0,30.20,ESE,120,0.0,0.0,94,0.00,,,0.00,,2013-05-27 07:21:00,
2013-05-27 03:32:00,59.0,57.0,30.20,ESE,120,0.0,1.0,94,0.00,,,0.00,,2013-05-27 07:32:00,
2013-05-27 03:42:00,59.0,57.0,30.20,ESE,120,0.0,1.0,94,0.00,,,0.00,,2013-05-27 07:42:00,
2013-05-27 03:53:00,59.0,58.0,30.19,ESE,120,0.0,0.0,95,0.00,,,0.00,,2013-05-27 07:53:00,
2013-05-27 04:02:00,59.0,58.0,30.19,ESE,120,0.0,0.0,95,0.00,,,0.00,,2013-05-27 08:02:00,
2013-05-27 04:11:00,59.0,58.0,30.19,ESE,120,0.0,0.0,95,0.00,,,0.00,,2013-05-27 08:11:00,
2013-05-27 04:22:00,59.0,58.0,30.20,ESE,120,0.0,0.0,96,0.00,,,0.00,,2013-05-27 08:22:00,
2013-05-27 04:33:00,59.0,58.0,30.20,ESE,120,0.0,0.0,95,0.00,,,0.00,,2013-05-27 08:33:00,
2013-05-27 04:42:00,58.0,57.0,30.20,ESE,120,0.0,0.0,95,0.00,,,0.00,,2013-05-27 08:42:00,
2013-05-27 04:52:00,58.0,57.0,30.20,ESE,120,0.0,0.0,95,0.00,,,0.00,,2013-05-27 08:52:00,
2013-05-27 05:02:00,58.0,57.0,30.20,ESE,120,0.0,0.0,96,0.00,,,0.00,,2013-05-27 09:02:00,
2013-05-27 05:11:00,58.0,57.0,30.20,ESE,120,0.0,0.0,96,0.00,,,0.00,,2013-05-27 09:11:00,
2013-05-27 05:22:00,58.0,57.0,30.20,ESE,120,0.0,0.0,96,0.00,,,0.00,,2013-05-27 09:22:00,
2013-05-27 05:33:00,58.0,57.0,30.21,ESE,120,0.0,0.0,96,0.00,,,0.00,,2013-05-27 09:33:00,
2013-05-27 05:42:00,58.0,57.0,30.21,ESE,120,0.0,0.0,96,0.00,,,0.00,,2013-05-27 09:42:00,
2013-05-27 05:53:00,58.0,57.0,30.22,ESE,120,0.0,0.0,96,0.00,,,0.00,,2013-05-27 09:53:00,
2013-05-27 06:02:00,58.0,57.0,30.21,ESE,105,0.0,1.0,96,0.00,,,0.00,,2013-05-27 10:02:00,
2013-05-27 06:12:00,58.0,57.0,30.21,ESE,105,0.0,1.0,96,0.00,,,0.00,,2013-05-27 10:12:00,
2013-05-27 06:22:00,58.0,57.0,30.22,ESE,105,0.0,0.0,96,0.00,,,0.00,,2013-05-27 10:22:00,
2013-05-27 06:32:00,58.0,57.0,30.22,ESE,105,0.0,0.0,96,0.00,,,0.00,,2013-05-27 10:32:00,
2013-05-27 06:42:00,58.0,57.0,30.22,ESE,105,0.0,0.0,96,0.00,,,0.00,,2013-05-27 10:42:00,
2013-05-27 06:52:00,58.0,57.0,30.22,ESE,105,0.0,0.0,96,0.00,,,0.00,,2013-05-27 10:52:00,
2013-05-27 07:02:00,58.0,57.0,30.23,ESE,105,0.0,0.0,97,0.00,,,0.00,,2013-05-27 11:02:00,
2013-05-27 07:11:00,58.0,57.0,30.23,ESE,105,0.0,0.0,97,0.00,,,0.00,,2013-05-27 11:11:00,
2013-05-27 07:22:00,58.0,57.0,30.24,ESE,105,0.0,0.0,97,0.00,,,0.00,,2013-05-27 11:22:00,
2013-05-27 07:32:00,59.0,58.0,30.24,ESE,105,0.0,0.0,97,0.00,,,0.00,,2013-05-27 11:32:00,
2013-05-27 07:42:00,59.0,58.0,30.24,ESE,105,0.0,0.0,97,0.00,,,0.00,,2013-05-27 11:42:00,
2013-05-27 07:52:00,61.0,60.0,30.24,ESE,104,0.0,1.0,98,0.00,,,0.00,,2013-05-27 11:52:00,
2013-05-27 08:01:00,64.0,63.0,30.24,ESE,104,0.0,0.0,95,0.00,,,0.00,,2013-05-27 12:01:00,
2013-05-27 08:11:00,64.0,63.0,30.24,ESE,104,0.0,0.0,95,0.00,,,0.00,,2013-05-27 12:11:00,
2013-05-27 08:22:00,68.0,65.0,30.24,ESE,104,0.0,0.0,91,0.00,,,0.00,,2013-05-27 12:22:00,
2013-05-27 08:32:00,70.0,65.0,30.25,ESE,104,0.0,0.0,84,0.00,,,0.00,,2013-05-27 12:32:00,
2013-05-27 08:42:00,70.0,65.0,30.25,ESE,104,0.0,0.0,84,0.00,,,0.00,,2013-05-27 12:42:00,
2013-05-27 08:52:00,73.0,67.0,30.25,ESE,104,0.0,0.0,82,0.00,,,0.00,,2013-05-27 12:52:00,
2013-05-27 09:01:00,75.0,66.0,30.25,WSW,241,1.0,1.0,73,0.00,,,0.00,,2013-05-27 13:01:00,
2013-05-27 09:11:00,75.0,66.0,30.25,WSW,241,1.0,1.0,73,0.00,,,0.00,,2013-05-27 13:11:00,
2013-05-27 09:22:00,74.0,64.0,30.25,WSW,248,2.0,4.0,72,0.00,,,0.00,,2013-05-27 13:22:00,
2013-05-27 09:32:00,75.0,65.0,30.25,WNW,292,2.0,4.0,71,0.00,,,0.00,,2013-05-27 13:32:00,
2013-05-27 09:42:00,75.0,65.0,30.25,WNW,292,2.0,4.0,71,0.00,,,0.00,,2013-05-27 13:42:00,
2013-05-27 09:53:00,75.0,64.0,30.25,SSW,212,3.0,4.0,69,0.00,,,0.00,,2013-05-27 13:53:00,
2013-05-27 10:02:00,75.0,64.0,30.25,SSW,212,3.0,4.0,69,0.00,,,0.00,,2013-05-27 14:02:00,
2013-05-27 10:11:00,75.0,64.0,30.25,SSW,212,3.0,4.0,69,0.00,,,0.00,,2013-05-27 14:11:00,
2013-05-27 10:22:00,75.0,64.0,30.25,SSW,212,3.0,4.0,69,0.00,,,0.00,,2013-05-27 14:22:00,
2013-05-27 13:32:00,84.0,64.0,30.22,East,98,2.0,4.0,52,0.00,,,0.00,,2013-05-27 17:32:00,
2013-05-27 13:43:00,84.0,64.0,30.22,East,98,2.0,4.0,52,0.00,,,0.00,,2013-05-27 17:43:00,
2013-05-27 13:52:00,85.0,65.0,30.22,ESE,114,2.0,7.0,51,0.00,,,0.00,,2013-05-27 17:52:00,
2013-05-27 14:02:00,86.0,64.0,30.22,East,88,2.0,5.0,48,0.00,,,0.00,,2013-05-27 18:02:00,
2013-05-27 14:11:00,86.0,64.0,30.22,East,88,2.0,5.0,48,0.00,,,0.00,,2013-05-27 18:11:00,
2013-05-27 14:22:00,85.0,65.0,30.21,SE,128,3.0,7.0,52,0.00,,,0.00,,2013-05-27 18:22:00,
2013-05-27 14:32:00,83.0,65.0,30.21,NE,51,2.0,4.0,54,0.00,,,0.00,,2013-05-27 18:32:00,
2013-05-27 14:42:00,83.0,65.0,30.21,NE,51,2.0,4.0,54,0.00,,,0.00,,2013-05-27 18:42:00,
2013-05-27 14:52:00,83.0,65.0,30.21,East,94,2.0,4.0,54,0.00,,,0.00,,2013-05-27 18:52:00,
2013-05-27 15:01:00,83.0,65.0,30.21,SW,214,2.0,5.0,55,0.00,,,0.00,,2013-05-27 19:01:00,
2013-05-27 15:11:00,83.0,65.0,30.21,SW,214,2.0,5.0,55,0.00,,,0.00,,2013-05-27 19:11:00,
2013-05-27 15:22:00,84.0,63.0,30.20,SW,221,3.0,7.0,50,0.00,,,0.00,,2013-05-27 19:22:00,
2013-05-27 15:32:00,85.0,63.0,30.20,SW,216,3.0,7.0,48,0.00,,,0.00,,2013-05-27 19:32:00,
2013-05-27 15:42:00,85.0,63.0,30.20,SW,216,3.0,7.0,48,0.00,,,0.00,,2013-05-27 19:42:00,
2013-05-27 15:52:00,86.0,63.0,30.19,WNW,284,3.0,7.0,46,0.00,,,0.00,,2013-05-27 19:52:00,
2013-05-27 16:01:00,85.0,62.0,30.19,ESE,108,3.0,10.0,47,0.00,,,0.00,,2013-05-27 20:01:00,
2013-05-27 16:11:00,85.0,62.0,30.19,ESE,108,3.0,10.0,47,0.00,,,0.00,,2013-05-27 20:11:00,
2013-05-27 16:22:00,85.0,64.0,30.19,ENE,70,3.0,9.0,49,0.00,,,0.00,,2013-05-27 20:22:00,
2013-05-27 16:32:00,84.0,62.0,30.19,ENE,76,2.0,7.0,48,0.00,,,0.00,,2013-05-27 20:32:00,
2013-05-27 16:42:00,82.0,62.0,30.19,WSW,248,2.0,6.0,51,0.00,,,0.00,,2013-05-27 20:42:00,
2013-05-27 16:53:00,82.0,62.0,30.19,WSW,248,2.0,6.0,51,0.00,,,0.00,,2013-05-27 20:53:00,
2013-05-27 17:01:00,82.0,64.0,30.19,SSW,207,3.0,9.0,54,0.00,,,0.00,,2013-05-27 21:01:00,
2013-05-27 17:12:00,82.0,63.0,30.18,SW,222,2.0,8.0,53,0.00,,,0.00,,2013-05-27 21:12:00,
2013-05-27 17:21:00,82.0,63.0,30.18,SW,222,2.0,8.0,53,0.00,,,0.00,,2013-05-27 21:21:00,
2013-05-27 17:33:00,81.0,62.0,30.18,East,82,3.0,9.0,53,0.00,,,0.00,,2013-05-27 21:33:00,
2013-05-27 17:43:00,81.0,64.0,30.18,East,90,5.0,9.0,57,0.00,,,0.00,,2013-05-27 21:43:00,
2013-05-27 17:53:00,81.0,64.0,30.18,East,90,5.0,9.0,57,0.00,,,0.00,,2013-05-27 21:53:00,
2013-05-27 18:02:00,80.0,64.0,30.17,East,86,4.0,9.0,58,0.00,,,0.00,,2013-05-27 22:02:00,
2013-05-27 18:12:00,80.0,64.0,30.18,East,98,4.0,8.0,58,0.00,,,0.00,,2013-05-27 22:12:00,
2013-05-27 18:22:00,80.0,64.0,30.18,East,98,4.0,8.0,58,0.00,,,0.00,,2013-05-27 22:22:00,
2013-05-27 18:33:00,80.0,64.0,30.17,ESE,108,2.0,8.0,59,0.00,,,0.00,,2013-05-27 22:33:00,
2013-05-27 18:42:00,79.0,64.0,30.16,SW,233,1.0,6.0,60,0.00,,,0.00,,2013-05-27 22:42:00,
2013-05-27 18:53:00,79.0,64.0,30.16,SW,233,1.0,6.0,60,0.00,,,0.00,,2013-05-27 22:53:00,
2013-05-27 19:02:00,78.0,64.0,30.17,ESE,113,1.0,5.0,63,0.00,,,0.00,,2013-05-27 23:02:00,
2013-05-27 19:12:00,78.0,65.0,30.16,WSW,251,1.0,4.0,65,0.00,,,0.00,,2013-05-27 23:12:00,
2013-05-27 19:22:00,78.0,65.0,30.16,WSW,251,1.0,4.0,65,0.00,,,0.00,,2013-05-27 23:22:00,
2013-05-27 19:32:00,77.0,65.0,30.17,ESE,104,1.0,5.0,67,0.00,,,0.00,,2013-05-27 23:32:00,
2013-05-27 19:42:00,77.0,65.0,30.17,ESE,104,1.0,5.0,67,0.00,,,0.00,,2013-05-27 23:42:00,
2013-05-27 19:52:00,77.0,66.0,30.17,ESE,111,0.0,3.0,68,0.00,,,0.00,,2013-05-27 23:52:00,
2013-05-27 20:01:00,76.0,65.0,30.17,ESE,117,1.0,4.0,70,0.00,,,0.00,,2013-05-28 00:01:00,
2013-05-27 20:11:00,76.0,65.0,30.17,ESE,117,1.0,4.0,70,0.00,,,0.00,,2013-05-28 00:11:00,
2013-05-27 20:22:00,75.0,65.0,30.17,ESE,105,1.0,4.0,72,0.00,,,0.00,,2013-05-28 00:22:00,
2013-05-27 20:32:00,74.0,66.0,30.17,ESE,105,0.0,4.0,75,0.00,,,0.00,,2013-05-28 00:32:00,
2013-05-27 20:42:00,74.0,66.0,30.17,ESE,105,0.0,4.0,75,0.00,,,0.00,,2013-05-28 00:42:00,
2013-05-27 20:52:00,73.0,65.0,30.18,SE,127,0.0,2.0,77,0.00,,,0.00,,2013-05-28 00:52:00,
2013-05-27 21:01:00,72.0,65.0,30.19,East,89,0.0,1.0,79,0.00,,,0.00,,2013-05-28 01:01:00,
2013-05-27 21:11:00,72.0,65.0,30.19,East,89,0.0,1.0,79,0.00,,,0.00,,2013-05-28 01:11:00,
2013-05-27 21:22:00,70.0,65.0,30.19,East,89,0.0,1.0,84,0.00,,,0.00,,2013-05-28 01:22:00,
2013-05-27 21:32:00,70.0,65.0,30.19,East,89,0.0,0.0,85,0.00,,,0.00,,2013-05-28 01:32:00,
2013-05-27 21:42:00,70.0,65.0,30.19,East,89,0.0,0.0,85,0.00,,,0.00,,2013-05-28 01:42:00,
2013-05-27 21:52:00,69.0,65.0,30.20,East,91,0.0,1.0,87,0.00,,,0.00,,2013-05-28 01:52:00,
2013-05-27 22:02:00,68.0,65.0,30.21,East,91,0.0,1.0,89,0.00,,,0.00,,2013-05-28 02:02:00,
2013-05-27 22:11:00,68.0,65.0,30.21,East,91,0.0,1.0,89,0.00,,,0.00,,2013-05-28 02:11:00,
2013-05-27 22:22:00,67.0,64.0,30.21,ESE,110,0.0,1.0,90,0.00,,,0.00,,2013-05-28 02:22:00,
2013-05-27 22:32:00,67.0,64.0,30.22,ESE,110,0.0,1.0,91,0.00,,,0.00,,2013-05-28 02:32:00,
2013-05-27 22:42:00,67.0,64.0,30.22,ESE,110,0.0,1.0,91,0.00,,,0.00,,2013-05-28 02:42:00,
2013-05-27 22:52:00,67.0,64.0,30.22,ESE,110,0.0,0.0,91,0.00,,,0.00,,2013-05-28 02:52:00,
2013-05-27 23:01:00,66.0,64.0,30.22,ESE,110,0.0,0.0,92,0.00,,,0.00,,2013-05-28 03:01:00,
2013-05-27 23:11:00,66.0,64.0,30.22,ESE,110,0.0,0.0,92,0.00,,,0.00,,2013-05-28 03:11:00,
2013-05-27 23:22:00,66.0,64.0,30.22,ESE,110,0.0,0.0,93,0.00,,,0.00,,2013-05-28 03:22:00,
2013-05-27 23:33:00,66.0,64.0,30.22,ESE,110,0.0,0.0,93,0.00,,,0.00,,2013-05-28 03:33:00,
2013-05-27 23:43:00,66.0,64.0,30.22,ESE,110,0.0,0.0,93,0.00,,,0.00,,2013-05-28 03:43:00,
2013-05-27 23:53:00,65.0,63.0,30.22,ESE,110,0.0,1.0,93,0.00,,,0.00,,2013-05-28 03:53:00,